User: anonymous   Login
Location: Radomski Observatory
(40.2854°N, 79.5145°W)
Time: 18:19:17
(UTC-05:00)
Language:

Uosat F - Orbit

View from above orbital plane
View from above orbital plane
View from above satellite
View from above satellite

Ground track
Ground track

The orbit data is extracted from the following two-line orbital elements,

1 21575U 91050B   18019.12429896  .00000008  00000-0  16969-4 0  9998
2 21575  98.7440  45.5325 0007697  25.6761 334.4807 14.40830503392375
Epoch (UTC): 19 January 2018 02:58:59
Eccentricity: 0.0007697
inclination: 98.7440°
perigee height: 750 km
apogee height: 761 km
right ascension of ascending node: 45.5325°
argument of perigee: 25.6761°
revolutions per day: 14.40830503
mean anomaly at epoch: 334.4807°
orbit number at epoch: 39237

The dashed part of the orbit path shows where the satellite is in the earth's shadow,  

DLR